Location: Beneden-Haastrecht
(52.0012°N, 4.7557°E)
Time: 03:12:00
(UTC+00:00)

CZ-4B R/B - Pass Details

Date: 24 October 2020
Orbit: 388 x 462 km, 97.6° (Epoch: 27 November)

Event Time Altitude Azimuth Distance (km) Brightness Sun altitude
Rises 17:31:11 0° 13° (NNE) 2,439 4.9 -10.4°
Reaches altitude 10° 17:33:14 10° 13° (NNE) 1,551 3.9 -10.7°
Maximum altitude 17:36:33 84° 287° (WNW) 435 1.3 -11.3°
Drops below altitude 10° 17:39:45 10° 197° (SSW) 1,493 4.3 -11.7°
Sets 17:41:42 0° 197° (SSW) 2,338 5.3 -12.0°
